Regional Weather Roundup
Issued by NWS

Home | Current Version | Previous Version | Text Only | Print | Product List | Glossary On
Versions: 1 2 3 4 5 6 7 8 9 10 11 12 13 14 15 16 17 18 19 20 21 22 23 24 25 26 27 28 29 30 31 32 33 34 35 36 37 38 39 40 41 42 43 44 45 46 47 48 49 50
000
ASUS43 KMKX 280200
RWRWI

WISCONSIN REGIONAL WEATHER ROUNDUP
NATIONAL WEATHER SERVICE MILWAUKEE/SULLIVAN WI
900 PM CDT MON APR 27 2015

NOTE: "FAIR" INDICATES FEW OR NO CLOUDS BELOW 12,000 FEET WITH NO
SIGNIFICANT WEATHER AND/OR OBSTRUCTIONS TO VISIBILITY.

WIZ001-002-006>008-014>016-023>028-280300-
NORTHWEST WISCONSIN

CITY           SKY/WX    TMP DP  RH WIND       PRES   REMARKS
SUPERIOR ARPT  PTCLDY    41  32  70 E5        30.16R
ASHLAND        CLEAR     39  32  76 N5        30.16S
HAYWARD        CLEAR     50  31  48 N3        30.15R
SIREN          CLEAR     55  26  32 CALM      30.13S
CUMBERLAND     CLEAR     59  23  25 NE5       30.13S
RICE LAKE      CLEAR     58  26  29 N5        30.15R
CHETEK         CLEAR     54  34  47 N5        30.13R
LADYSMITH      CLEAR     54  27  34 NE6       30.15S
EAU CLAIRE     NOT AVBL
MENOMONIE      CLEAR     59  27  29 NW3       30.12R
NEW RICHMOND   CLEAR     56  24  29 CALM      30.14R
OSCEOLA        CLEAR     58  28  31 CALM      30.15S
$$

WIZ003>005-009-010-017-018-280300-
NORTH CENTRAL WISCONSIN

CITY           SKY/WX    TMP DP  RH WIND       PRES   REMARKS
MANITOWISH WTR CLEAR     45  29  52 CALM      30.15S
ARBOR VITAE    CLEAR     49  28  43 CALM      30.15S
WOODRUFF       CLEAR     49  28  43 CALM      30.15S
RHINELANDER    CLEAR     50  27  40 N3        30.15S
EAGLE RIVER    CLEAR     47  23  38 CALM      30.15R
LAND O LAKES   CLEAR     42  26  53 CALM      30.16S
PHILLIPS       CLEAR     48  27  43 E3        30.14S
TOMAHAWK       CLEAR     53  26  34 CALM      30.15R
MEDFORD        CLEAR     51  30  43 N6        30.13R
MERRILL        CLEAR     53  26  34 N7        30.13R
$$

WIZ029-030-035-036-043>047-280300-
CENTRAL WISCONSIN

CITY           SKY/WX    TMP DP  RH WIND       PRES   REMARKS
WAUSAU         CLEAR     56  24  29 N7        30.10R
MOSINEE        CLEAR     55  27  33 N12       30.12R
MARSHFIELD     CLEAR     57  30  35 N6        30.11R
STEVENS POINT  CLEAR     57  25  30 N6        30.10S
WAUPACA        CLEAR     57  35  43 CALM      30.10R
WAUTOMA        NOT AVBL
WISC RAPIDS    CLEAR     58  28  32 N9        30.10R
CAMP DOUGLAS   NOT AVBL
$$

WIZ011>013-019>022-031-037>040-048>050-280300-
NORTHEAST WISCONSIN

CITY           SKY/WX    TMP DP  RH WIND       PRES   REMARKS
ANTIGO         CLEAR     50  31  48 N9        30.13R
SHAWANO        CLEAR     50  35  57 E8        30.13R
OCONTO         CLEAR     43  35  74 CALM      30.14R
STURGEON BAY   CLEAR     43  30  61 NE5       30.17S
GREEN BAY      CLEAR     46  34  62 E6        30.14R
MANITOWOC      NOT AVBL
APPLETON       NOT AVBL
CLINTONVILLE   CLEAR     50  32  50 E6        30.11R
OSHKOSH        CLEAR     47  34  60 E12       30.12R
$$

WIZ032>034-041-042-053>061-280300-
SOUTHWEST WISCONSIN

CITY           SKY/WX    TMP DP  RH WIND       PRES   REMARKS
LA CROSSE      CLEAR     57  33  40 N3        30.09S
SPARTA         CLEAR     52  32  47 CALM      30.10S
VIROQUA        CLEAR     55  32  41 N5        30.10S
BOSCOBEL       CLEAR     53  36  52 CALM      30.10R
PRAIRIE DU CHI CLEAR     57  32  38 CALM      30.10R
PLATTEVILLE    CLEAR     59  32  36 NW6       30.09S
$$

WIZ056-057-062-063-064-067-068-280300-
SOUTH CENTRAL WISCONSIN

CITY           SKY/WX    TMP DP  RH WIND       PRES   REMARKS
REEDSBURG      CLEAR     59  33  36 NW3       30.08R
BARABOO/DELLS  CLEAR     59  27  29 NW3       30.08R
LONE ROCK      NOT AVBL
MINERAL POINT  CLEAR     59  28  31 N5        30.09S
MADISON        CLEAR     54  33  45 E3        30.08R
MIDDLETON      CLEAR     54  35  48 W3        30.08S
WATERTOWN      CLEAR     48  38  67 E5        30.09S
MONROE         CLEAR     59  32  36 NE3       30.08R
JANESVILLE     CLEAR     50  36  57 E8        30.09R
$$

WIZ051-052-058>065-066-070>072-280300-
SOUTHEAST WISCONSIN

CITY           SKY/WX    TMP DP  RH WIND       PRES   REMARKS
MILWAUKEE      CLEAR     42  30  62 CALM      30.14R
WAUKESHA       NOT AVBL
MILWAUKEE/TIMM CLEAR     45  30  57 CALM      30.13R
RACINE         CLEAR     41  32  70 N5        30.14S
BURLINGTON     CLEAR     42  33  68 E6        30.12R
KENOSHA        CLEAR     40  32  73 NE3       30.12S
FOND DU LAC    CLEAR     47  34  60 E9        30.12R
SHEBOYGAN      CLEAR     39  33  79 CALM      30.13R
WEST BEND      CLEAR     41  32  70 E3        30.12R
JUNEAU         CLEAR     48  37  64 E10       30.10R
$$

LSZ147-162-280300-
LAKE SUPERIOR

STATION/POSITION TIME  TEMP    WIND        PRES    WAVE
                       AIR SEA DIR/SP/G            HT/PER
                 (UTC) (F)     (DEG/KT/KT) (MB)    (FT/S)
W MID LAKE BUOY  0050   37 35   50/  4/  4 1023.2F   0
DEVILS ISLAND    0100   49     110/  8/  8 1021.8F
PORT WING        0100   39      30/  7/  8 1021.0S
SAXON HARBOR     0140   45        CALM     1021.0S
$$

LMZ867-665-643>646-280300-
LAKE MICHIGAN

STATION/POSITION TIME  TEMP    WIND        PRES    WAVE
                       AIR SEA DIR/SP/G            HT/PER
                 (UTC) (F)     (DEG/KT/KT) (MB)    (FT/S)
CHAMBERS ISLAND  0100   45      50/ 12/ 19 1020.7R
NORTHPORT PIER   0100   46      30/  9/ 12 1020.3R
SISTER BAY       0147   45        CALM       N/A
KEWAUNEE LAKESHO 0100   44      CALM  /  1 1019.6R
SHEBOYGAN LAKESH 0100   44     360/  7/  8 1020.7R
PORT WASHINGTON  0100   45      20/  4/  6 1020.7
MILWAUKEE LAKESH 0100   44      30/  7/  8   N/A
KENOSHA   LAKESH 0100   43      10/  7/  8 1019.6S
$$

TC  - TEMPERATURE IN CELSIUS
VSB - VISIBILITY IN STATUTE MILES
WCI - WIND CHILL INDEX
HX  - HEAT INDEX




USA.gov is the U.S. government's official web portal to all federal, state and local government web resources and services.